Weather History for Wilmington, OH

Change the Weather History Date:

Thursday, August 14, 2014

  Actual Average (KDAY) Record (KDAY)
Temperature  
Mean Temperature 66 °F 73 °F  
Max Temperature 78 °F 83 °F 96 °F (1901)
Min Temperature 57 °F 63 °F 44 °F (1964)
Degree Days  
Heating Degree Days 0 0  
Month to date heating degree days 0  
Since 1 June heating degree days 22  
Since 1 July heating degree days 0  
Cooling Degree Days 1 8  
Month to date cooling degree days 118  
Year to date cooling degree days 657  
Since 1 June cooling degree days 587  
Growing Degree Days 16 (Base 50)    
Moisture  
Dew Point 55 °F    
Average Humidity 65    
Maximum Humidity 89    
Minimum Humidity 44    
Precipitation  
Precipitation 0.00 in 0.09 in 1.06 in (2010)
Month to date precipitation 1.30  
Year to date precipitation 26.62  
Snow  
Snow 0.00 in 0.00 in 0.00 in ()
Month to date snowfall 0.0  
Since 1 June snowfall 0.0  
Since 1 July snowfall 0.0  
Snow Depth -    
Sea Level Pressure  
Sea Level Pressure 30.01 in    
Wind  
Wind Speed 6 mph (NNW)    
Max Wind Speed 12 mph    
Max Gust Speed -    
Visibility 10 miles    
Events Rain    
T = Trace of Precipitation, MM = Missing Value Source: NWS Daily Summary

Daily Weather History Graph

Daily Weather History Graph

Search for Another Location

Airport:

Trip Planner

Search our weather history database for the weather conditions in past years. The results will help you decide how hot, cold, wet, or windy it might be!

Date:

Astronomy

Aug. 14, 2014 Rise Set
Actual Time 6:47 AM EDT 8:32 PM EDT
Civil Twilight 6:18 AM EDT 9:00 PM EDT
Nautical Twilight 5:43 AM EDT 9:35 PM EDT
Astronomical Twilight 5:05 AM EDT 10:12 PM EDT
Moon 10:56 PM EDT (8/14) 11:20 AM EDT (8/14)
Length of Visible Light 14h 42m
Length of Day
13h 45m
Waning Gibbous, 79% of the Moon is Illuminated
Aug 14
Waning Gibbous
Aug 17
Last Quarter
Aug 25
New
Sep 2
First Quarter
Sep 8
Full

Hourly Weather History & Observations

Time (EDT) Temp. Dew Point Humidity Pressure Visibility Wind Dir Wind Speed Gust Speed Precip Events Conditions
12:54 AM 66.9 °F 55.9 °F 68% 30.01 in 10.0 mi West 5.8 mph - 0.00 in Rain Light Rain
1:54 AM 66.9 °F 55.9 °F 68% 30.00 in 10.0 mi WSW 5.8 mph - 0.00 in   Overcast
2:54 AM 66.0 °F 55.9 °F 70% 29.99 in 10.0 mi West 6.9 mph - N/A   Mostly Cloudy
3:54 AM 66.0 °F 57.0 °F 73% 29.99 in 10.0 mi West 5.8 mph - N/A   Overcast
4:54 AM 64.9 °F 57.9 °F 78% 29.99 in 10.0 mi West 5.8 mph - N/A   Overcast
5:54 AM 64.9 °F 59.0 °F 81% 29.99 in 10.0 mi WNW 5.8 mph - N/A   Overcast
6:54 AM 64.0 °F 59.0 °F 84% 30.02 in 10.0 mi WNW 5.8 mph - N/A   Partly Cloudy
7:54 AM 64.9 °F 57.9 °F 78% 30.03 in 10.0 mi NNW 5.8 mph - N/A   Clear
8:54 AM 66.0 °F 55.9 °F 70% 30.04 in 10.0 mi North 4.6 mph - N/A   Clear
9:54 AM 69.1 °F 53.1 °F 57% 30.04 in 10.0 mi NE 4.6 mph - N/A   Scattered Clouds
10:54 AM 71.1 °F 52.0 °F 51% 30.06 in 10.0 mi Calm Calm - N/A   Mostly Cloudy
11:54 AM 70.0 °F 53.1 °F 55% 30.05 in 10.0 mi Calm Calm - N/A   Overcast
12:54 PM 73.0 °F 53.1 °F 49% 30.03 in 10.0 mi NNE 4.6 mph - N/A   Partly Cloudy
1:54 PM 75.0 °F 52.0 °F 44% 30.01 in 10.0 mi NNW 5.8 mph - N/A   Partly Cloudy
2:54 PM 73.9 °F 52.0 °F 46% 30.01 in 10.0 mi NNW 11.5 mph - N/A   Mostly Cloudy
3:54 PM 75.9 °F 53.1 °F 45% 29.99 in 10.0 mi NNW 8.1 mph - N/A   Mostly Cloudy
4:54 PM 75.0 °F 54.0 °F 48% 29.99 in 10.0 mi North 8.1 mph - N/A   Scattered Clouds
5:54 PM 75.9 °F 54.0 °F 46% 29.97 in 10.0 mi NNE 8.1 mph - N/A   Clear
6:54 PM 73.9 °F 55.0 °F 52% 29.97 in 10.0 mi NNE 9.2 mph - N/A   Clear
7:54 PM 71.1 °F 55.0 °F 57% 29.98 in 10.0 mi NNE 6.9 mph - N/A   Clear
8:54 PM 64.0 °F 55.9 °F 75% 30.00 in 10.0 mi NNE 4.6 mph - N/A   Clear
9:54 PM 61.0 °F 55.0 °F 81% 30.01 in 10.0 mi NNE 4.6 mph - N/A   Clear
10:54 PM 57.0 °F 54.0 °F 89% 30.03 in 10.0 mi Calm Calm - N/A   Clear
11:54 PM 57.0 °F 54.0 °F 89% 30.04 in 8.0 mi Calm Calm - N/A   Clear